Regional Weather Roundup
Issued by NWS Cleveland, OH

Home | Current Version | Previous Version | Text Only | Print | Product List | Glossary Off
Versions: 1 2 3 4 5 6 7 8 9 10 11 12 13 14 15 16 17 18 19 20 21 22 23 24 25 26 27 28 29 30 31 32 33 34 35 36 37 38 39 40 41 42 43 44 45 46 47 48 49 50

000
ASUS41 KCLE 030110
RWRCLE
OHIO REGIONAL WEATHER ROUNDUP
NATIONAL WEATHER SERVICE WILMINGTON, OH
900 PM EDT SUN AUG 02 2015

NOTE: "FAIR" INDICATES FEW OR NO CLOUDS BELOW 12,000 FEET WITH NO
SIGNIFICANT WEATHER AND/OR OBSTRUCTIONS TO VISIBILITY.

OHZ001>008-015>018-024>027-034-035-043-044-030200-
   NORTHWEST OHIO

CITY           SKY/WX    TMP DP  RH WIND       PRES   REMARKS
DEFIANCE       PTCLDY    84  63  49 SW12G21   29.76S
FINDLAY        CLEAR     80  62  54 SW14      29.79S
TOLEDO EXPRESS PTCLDY    82  63  52 SW12G20   29.74S
TOLEDO EXEC    CLEAR     83  64  52 SW15G23   29.75S
LIMA           CLEAR     79  62  56 SW12      29.83S
$$

OHZ009>014-019>023-028>033-038-089-030200-
   NORTHEAST OHIO

CITY           SKY/WX    TMP DP  RH WIND       PRES   REMARKS
CLE-HOPKINS    PTCLDY    81  60  48 SW14      29.81S
CLE-LAKEFRONT  CLEAR     84  59  42 S17G26    29.77S
CUY CO. ARPT   PTCLDY    84  61  45 S9        29.80F
LORAIN-ELYRIA  CLEAR     80  60  50 SW14      29.80S
ASHTABULA      CLEAR     80  62  54 SW15G23   29.80F
AKRON-CANTON   PTCLDY    78  61  55 S13G23    29.87R
WOOSTER        CLEAR     77  62  59 SW8       29.86R
MANSFIELD      CLEAR     77  60  55 S14       29.85S
YOUNGSTOWN     PTCLDY    78  64  61 S10       29.86R
$$

OHZ042-051>053-060>062-070>072-077>081-030200-
  SOUTHWEST OHIO

CITY           SKY/WX    TMP DP  RH WIND       PRES   REMARKS
CINC-COVINGTON PTCLDY    77  62  59 S7        29.89F
CINC-LUNKEN    CLEAR     76  64  66 S5        29.88F
HAMILTON       CLEAR     75  63  66 SW3       29.88S
DAYTON         PTCLDY    79  61  53 SW10      29.88R
WRIGHT-PAT AFB CLEAR     78  61  55 S8        29.86S
DAYTON GENERAL CLEAR     79  59  50 SW8       29.87S
WILMINGTON     CLEAR     73  62  68 S8        29.89F
$$

OHZ036-037-039>041-045>050-054>059-063>069-073>076-082>088-030200-
  CENTRAL AND SOUTHEAST OHIO

CITY           SKY/WX    TMP DP  RH WIND       PRES   REMARKS
COLUMBUS       PTCLDY    80  61  52 S8        29.87S
OSU AIRPORT    CLEAR     79  61  53 S9        29.87R
BOLTON FIELD   CLEAR     75  64  67 S6        29.88S
RICKENBACK AFB CLEAR     76  63  64 S9        29.87S
NEWARK         CLEAR     78  62  57 SW7       29.87F
MARION         CLEAR     78  60  53 SW12      29.85R
LANCASTER      CLEAR     76  62  62 S5        29.89F
ZANESVILLE     CLEAR     76  62  62 S6        29.88F
NEW PHILLY     CLEAR     76  63  64 VRB3      29.88R
$$



USA.gov is the U.S. government's official web portal to all federal, state and local government web resources and services.